Location: Newark
(52.5667°N, 8.8000°W)
Time: 11:35:39
(UTC+00:00)

N. Korean satellite - Pass Details

Date: 31 January 2020
Orbit: 456 x 505 km, 97.2° (Epoch: 23 February)

Event Time Altitude Azimuth Distance (km) Brightness Sun altitude
Rises 06:14:51 0° 17° (NNE) 2,557 10.4 -18.9°
Reaches altitude 10° 06:16:57 10° 22° (NNE) 1,680 9.5 -18.6°
Maximum altitude 06:20:30 51° 100° (E) 624 7.5 -18.0°
Drops below altitude 10° 06:24:03 10° 177° (S) 1,692 9.4 -17.5°
Sets 06:26:11 0° 183° (S) 2,576 10.3 -17.2°
